This is the latest recevied weather packets stored in our database for station/object KB4JHU-15. If no packets are shown the sender has not sent any weather packets the latest 10 day(s).
| Time | Temp. | Humidity | Pressure | Rain* | Wind** | Luminosity | Snow |
|---|---|---|---|---|---|---|---|
| 1778065641 | 19.44° C | 93% | - | 4.32 mm | - | - | - |
| 1778063840 | 18.89° C | 92% | - | 2.03 mm | - | - | - |
| 1778062040 | 19.44° C | 89% | - | 0.25 mm | - | - | - |
| 1778060238 | 20° C | 84% | - | 0 mm | - | - | - |
| 1778058437 | 20.56° C | 76% | - | 0 mm | - | - | - |
| 1778056636 | 21.11° C | 72% | - | 0 mm | - | - | - |
| 1778054835 | 21.67° C | 68% | - | 0 mm | - | - | - |
| 1778053034 | 21.67° C | 67% | - | 0 mm | - | - | - |
| 1778051233 | 21.67° C | 66% | - | 0 mm | - | - | - |
| 1778049433 | 21.67° C | 63% | - | 0 mm | - | - | - |
| 1778047631 | 22.22° C | 63% | - | 0 mm | - | - | - |
| 1778045830 | 21.67° C | 63% | - | 0 mm | - | - | - |
| 1778044029 | 21.67° C | 65% | - | 0 mm | - | - | - |
| 1778042228 | 21.11° C | 65% | - | 0 mm | - | - | - |
| 1778040429 | 21.11° C | 65% | - | 0 mm | - | - | - |
| 1778038626 | 21.11° C | 66% | - | 0 mm | - | - | - |
| 1778036825 | 20.56° C | 66% | - | 0 mm | - | - | - |
| 1778035024 | 21.11° C | 66% | - | 0 mm | - | - | - |
| 1778033224 | 21.11° C | 64% | - | 0 mm | - | - | - |
| 1778031422 | 21.11° C | 62% | - | 0 mm | - | - | - |
| 1778029621 | 21.11° C | 62% | - | 0 mm | - | - | - |
| 1778027820 | 21.67° C | 60% | - | 0 mm | - | - | - |
| 1778026019 | 21.67° C | 58% | - | 0 mm | - | - | - |
| 1778024218 | 22.22° C | 58% | - | 0 mm | - | - | - |
| 1778022418 | 22.22° C | 56% | - | 0 mm | - | - | - |
* Rain latest hour (hover to see other rain measurements)
** Current wind speed in m/s (hover to see current wind gust speed)